This is the latest recevied weather packets stored in our database for station/object YT1XN-8. If no packets are shown the sender has not sent any weather packets the latest 10 day(s).
| Time | Temp. | Humidity | Pressure | Rain* | Wind** | Luminosity | Snow |
|---|---|---|---|---|---|---|---|
| 1777365046 | 19.44° C | 49% | 1020.1 hPa | 0 mm | - | - | - |
| 1777364924 | 19.44° C | 52% | 1020.2 hPa | 0 mm | - | - | - |
| 1777364445 | 18.89° C | 51% | 1020.1 hPa | 0 mm | - | - | - |
| 1777364264 | 18.89° C | 52% | 1020.1 hPa | 0 mm | - | - | - |
| 1777363845 | 18.89° C | 54% | 1020.1 hPa | 0 mm | - | - | - |
| 1777363604 | 18.33° C | 59% | 1020.1 hPa | 0 mm | - | - | - |
| 1777363245 | 18.33° C | 61% | 1020.2 hPa | 0 mm | - | - | - |
| 1777362944 | 17.78° C | 63% | 1020.1 hPa | 0 mm | - | - | - |
| 1777362645 | 17.78° C | 66% | 1020.2 hPa | 0 mm | - | - | - |
| 1777362284 | 17.22° C | 65% | 1020.1 hPa | 0 mm | - | - | - |
| 1777362045 | 16.67° C | 67% | 1020.2 hPa | 0 mm | - | - | - |
| 1777361624 | 16.11° C | 67% | 1020.1 hPa | 0 mm | - | - | - |
| 1777361445 | 15.56° C | 65% | 1020.1 hPa | 0 mm | - | - | - |
| 1777360964 | 15° C | 69% | 1020 hPa | 0 mm | - | - | - |
| 1777360846 | 14.44° C | 70% | 1020.1 hPa | 0 mm | - | - | - |
| 1777360304 | 14.44° C | 70% | 1020.1 hPa | 0 mm | - | - | - |
| 1777360247 | 14.44° C | 71% | 1020.1 hPa | 0 mm | - | - | - |
| 1777359645 | 13.33° C | 74% | 1019.7 hPa | 0 mm | - | - | - |
| 1777359047 | 12.78° C | 73% | 1019.7 hPa | 0 mm | - | - | - |
| 1777358985 | 12.78° C | 74% | 1019.7 hPa | 0 mm | - | - | - |
| 1777358447 | 12.22° C | 74% | 1019.8 hPa | 0 mm | - | - | - |
| 1777358325 | 12.22° C | 76% | 1019.8 hPa | 0 mm | - | - | - |
| 1777357847 | 11.67° C | 76% | 1019.9 hPa | 0 mm | - | - | - |
| 1777357665 | 11.67° C | 76% | 1019.6 hPa | 0 mm | - | - | - |
| 1777357246 | 11.11° C | 77% | 1019.6 hPa | 0 mm | - | - | - |
* Rain latest hour (hover to see other rain measurements)
** Current wind speed in m/s (hover to see current wind gust speed)